To NAV CANADA Home Page Login to a new session Search on AWWS site Feedback and Comments Disclaimer Vers la page française équivalente Tips FAQ What's new on the site To the Forecasts and Observations / NOTAM section To "File a Flight Plan" website Publications and other links Update of the User's profile FIC Telephone Numbers My Weather Data Folder Route Weather Data Regional Weather Data Local Weather Data To the Forecasts and Observations / NOTAM section
Request Generated 03/28/2017 at 02:17:28 UTC . Weather information available at that time is displayed.

METAR/TAF

KANGIQSUALUJJUAQ (GEORGES RIVER)/QC    

LWIS CYLU 280200Z AUTO 14004KT M19/M24 A3038=
LWIS CYLU 280100Z AUTO 14005KT M19/M23 A3039=
LWIS CYLU 280000Z AUTO 14007KT M18/M23 A3040=

CYLU - No TAF is issued for this station

Your time UTC time
Weather data provided by Environment Canada and NAV CANADA